Wind_Speed
6 5 9 8 5 1 7 10 10 13 5 4 12 15 12 8 6 4 23 23 23 21 20 13 10 9 8 7 6 6 8 9 9 7 6 7 7 8 9 10 11 10 10 10 10 9 10 10 10
2 4 7 3 2 1 6 2 9 7 9 8 17 18 14 13 9 9 11 26 23 25 19 14 12 10 9 7 6 7 7 7 6 4 5 5 6 7 8 8 9 8 10 10 10 9 9 9 9
2 9 4 3 1 3 4 4 8 7 10 8 16 12 5 10 11 7 14 31 27 22 17 14 11 11 10 9 7 6 6 6 4 2 3 3 5 7 6 6 8 9 10 9 9 9 11 11 10
2 5 3 4 8 7 3 7 6 7 8 12 16 10 7 25 11 15 12 33 24 21 16 12 12 11 11 9 7 6 7 6 7 4 3 3 4 6 6 6 7 9 9 10 10 10 10 11 12
3 3 3 4 8 6 6 2 8 5 7 12 14 8 7 22 22 15 24 25 23 20 18 13 12 11 10 9 7 7 7 7 6 7 5 2 2 3 3 4 6 8 9 9 10 10 11 13 13
2 1 2 3 6 6 4 4 7 12 9 11 16 12 5 23 22 17 21 22 20 22 17 14 12 11 11 10 7 9 10 10 9 6 4 4 3 3 2 5 10 10 10 9 11 12 12 12 11
9 3 5 6 7 9 1 6 10 10 10 5 9 8 7 14 20 23 18 26 21 18 18 15 15 12 12 10 8 11 13 12 11 9 7 4 1 2 1 4 9 13 12 14 15 14 14 14 13
8 7 4 5 7 5 3 5 8 10 6 3 1 4 5 11 22 24 22 22 25 17 16 15 17 15 14 12 11 12 11 10 9 8 8 12 8 4 4 4 7 11 11 12 16 16 16 17 18
3 4 1 4 7 5 6 8 3 6 9 4 7 11 17 17 22 23 23 22 15 18 15 18 18 15 16 13 13 12 9 8 8 10 8 10 6 3 5 5 6 11 11 14 16 17 14 16 15
2 5 3 6 6 3 5 10 9 6 13 6 10 17 22 15 9 18 20 18 17 12 15 17 16 18 18 13 12 13 9 9 8 9 8 11 12 7 12 4 8 10 9 15 13 12 13 10 12
5 4 5 6 4 1 6 6 4 7 5 11 16 11 12 16 12 16 20 20 19 18 11 7 16 18 20 14 11 11 11 12 6 7 7 9 8 8 11 9 12 12 12 13 13 12 15 11 12
9 11 8 3 5 3 8 3 6 11 8 13 14 14 10 8 8 13 19 24 21 17 9 11 9 11 14 9 13 15 9 9 9 5 9 7 8 6 10 9 11 11 11 12 14 12 14 15 11
8 5 6 10 4 7 11 13 4 9 14 13 15 13 11 9 13 14 19 20 25 19 15 14 10 8 6 7 8 8 6 5 5 6 9 6 9 5 9 8 8 13 7 13 14 16 13 16 13
7 11 13 8 6 4 6 8 7 3 7 12 12 10 9 10 15 13 17 24 22 21 17 15 12 9 6 7 7 6 5 5 4 3 5 6 9 7 6 10 9 11 10 13 10 14 17 16 16
14 10 13 12 12 4 7 8 4 5 12 10 10 8 9 10 22 21 22 27 30 23 21 14 9 11 7 5 8 3 4 8 4 1 2 4 5 8 8 5 10 8 13 10 12 13 13 15 16
8 6 3 11 11 8 7 10 15 11 10 9 10 9 8 10 20 28 26 31 29 29 25 19 12 13 13 8 7 4 7 6 4 4 5 5 1 3 6 6 9 9 8 10 15 11 13 17 15
3 3 8 8 9 7 4 3 10 19 23 7 9 9 10 9 12 25 29 34 33 32 27 24 20 14 14 11 9 5 5 5 8 4 5 5 3 3 6 5 7 8 6 10 12 12 15 18 11
6 5 5 5 8 17 14 7 12 7 10 9 9 9 7 10 11 27 31 35 35 34 29 24 20 16 13 12 10 7 6 8 7 8 6 5 2 2 4 4 7 6 8 8 8 11 12 17 10
6 3 6 8 19 19 22 9 5 4 14 14 12 29 4 2 6 27 29 32 35 33 31 26 22 20 16 13 11 10 8 7 10 11 9 6 1 3 6 4 4 6 8 5 10 10 14 16 18
7 6 5 15 12 13 15 14 6 10 2 13 6 13 8 7 9 13 23 26 32 35 31 26 22 20 16 14 12 5 3 1 4 3 10 6 5 5 4 4 3 8 7 11 8 8 10 13 17
2 9 6 6 7 7 3 5 5 3 5 9 9 10 7 10 9 9 12 21 25 32 31 25 21 18 15 12 6 5 5 4 5 5 5 6 5 5 4 2 5 5 6 7 9 4 10 10 17
6 8 9 9 5 1 5 2 2 4 7 9 12 13 7 9 9 8 8 21 24 25 26 21 16 13 12 10 8 5 5 4 5 6 10 4 5 7 6 4 6 2 6 9 10 9 10 9 13
1 8 6 4 5 6 1 3 3 7 7 20 22 16 8 9 9 10 17 17 19 25 22 17 14 10 9 10 9 3 5 5 3 6 1 5 8 9 6 4 5 5 6 10 11 13 13 12 13
2 6 6 6 4 1 8 6 2 7 8 17 8 9 7 9 9 10 22 25 23 22 19 16 13 11 11 12 11 6 3 2 0 2 3 4 4 12 8 7 4 5 7 10 11 13 13 14 15
4 6 4 5 3 5 10 7 3 10 12 15 3 2 4 9 9 9 9 18 22 22 19 17 16 16 13 15 11 8 6 5 5 5 2 2 6 5 12 8 5 5 8 10 12 15 16 17 18
1 8 5 4 4 3 13 3 2 5 7 6 4 4 5 9 9 9 13 18 21 20 17 17 20 17 14 13 13 12 9 9 8 9 5 2 6 1 4 3 6 7 12 13 14 17 20 19 18
9 5 6 4 2 4 1 6 1 10 7 13 13 7 7 8 10 10 14 18 20 20 16 19 23 20 17 12 16 16 13 10 9 4 6 5 3 4 3 5 8 13 15 15 17 17 18 16 16
7 1 6 4 3 3 3 2 3 9 7 0 3 7 5 7 9 9 11 18 21 22 17 17 25 21 15 21 18 14 15 14 11 10 9 7 8 8 9 9 12 15 16 14 11 8 11 13 15
5 4 8 2 1 4 4 3 3 2 4 7 10 5 7 8 9 8 11 14 22 22 21 21 19 22 19 16 12 11 7 17 16 14 11 9 8 7 9 13 14 4 1 2 4 5 8 11 12
7 8 7 4 5 5 4 5 4 8 9 17 9 9 5 8 9 8 15 17 11 13 25 20 17 21 18 11 10 16 25 16 12 13 7 5 7 7 11 10 2 2 3 4 7 9 11 12 13
Wind_Direction
355 51 69 48 350 83 313 91 101 90 58 107 79 89 94 64 84 149 135 133 137 135 129 109 110 109 102 91 80 59 49 46 55 69 66 54 47 39 32 26 21 23 24 23 22 19 14 8 359
78 113 77 90 112 6 292 18 94 138 145 162 114 102 93 94 93 113 117 148 140 129 126 114 120 120 114 104 85 65 50 43 49 55 56 48 35 22 14 18 19 26 16 11 5 1 358 356 349
175 127 115 65 245 226 239 167 143 130 137 123 88 71 78 118 114 110 134 137 130 131 124 115 125 122 121 116 102 76 53 48 47 82 84 51 22 6 9 15 14 7 1 357 356 355 348 344 342
258 57 56 163 223 250 252 61 78 100 83 91 98 88 69 120 111 137 143 131 136 137 129 128 135 127 128 118 107 75 53 48 59 83 94 59 34 24 37 30 8 354 354 353 349 347 343 339 335
273 81 42 299 175 125 69 19 130 118 91 105 110 105 103 104 115 131 124 141 139 141 140 140 128 128 130 132 116 78 62 67 82 110 129 100 65 62 56 33 2 348 345 349 348 344 339 332 326
328 116 100 228 87 77 54 12 85 83 71 67 106 122 133 137 140 140 136 154 145 147 144 140 134 131 132 131 111 78 67 71 68 75 79 79 85 68 49 38 19 12 4 3 359 351 343 336 334
227 204 255 150 118 72 55 75 77 78 64 31 127 126 161 159 159 157 135 155 142 150 151 148 144 143 140 138 124 96 83 79 72 67 56 38 40 100 19 15 16 25 28 28 21 13 7 3 350
230 218 232 132 112 146 150 71 106 111 128 104 8 129 163 147 140 141 128 115 132 141 155 158 158 158 152 145 137 113 92 80 63 41 12 348 313 298 271 276 330 4 11 15 14 5 357 349 342
226 44 81 47 111 167 160 117 141 149 132 98 90 107 123 136 147 142 129 113 122 130 160 170 168 164 162 153 152 138 113 96 75 33 37 20 18 24 290 275 291 357 8 15 360 354 359 0 2
202 133 75 80 99 126 124 142 156 156 131 119 99 113 128 141 159 137 132 129 132 142 129 172 186 176 175 180 170 155 140 126 98 55 48 35 52 39 22 345 333 2 24 14 1 14 14 2 359
321 126 140 84 49 182 113 123 157 97 107 152 143 141 138 154 168 144 145 151 152 127 133 144 123 184 187 194 193 164 163 147 118 82 55 44 64 49 26 19 32 40 18 8 4 7 1 359 354
27 9 28 120 128 309 112 262 128 125 148 116 133 138 135 150 173 151 143 142 140 137 136 156 155 133 128 133 145 133 103 133 149 93 51 59 38 65 41 29 26 21 13 9 4 3 359 349 351
56 313 14 329 329 294 52 43 341 122 113 112 129 133 148 169 178 166 164 157 142 138 135 140 148 173 173 96 112 124 122 124 140 108 50 51 38 48 48 30 26 2 13 357 7 5 359 357 3
209 38 349 307 313 20 95 86 110 302 5 120 126 148 165 162 175 153 140 146 148 145 150 146 157 169 167 145 145 160 163 124 144 113 37 55 39 57 32 14 22 15 5 1 5 3 4 8 4
42 19 352 328 25 268 97 8 253 304 325 140 140 156 171 169 168 169 175 152 149 149 148 158 158 158 168 185 174 154 166 147 145 343 96 86 52 38 7 74 16 27 6 40 9 355 2 5 360
94 68 83 285 260 278 64 307 300 289 313 152 149 170 174 191 182 180 182 161 160 159 157 153 162 167 167 175 174 191 175 187 207 229 174 112 6 9 30 17 14 22 19 6 357 0 356 353 349
232 191 203 270 290 139 116 201 249 334 324 207 171 184 188 195 189 185 180 173 168 164 161 161 176 168 176 178 185 170 196 240 194 213 225 174 89 210 22 22 1 24 24 7 7 2 353 346 344
233 229 223 227 328 60 90 132 112 198 230 71 341 324 205 193 200 185 178 174 170 166 160 155 161 162 176 186 181 202 224 194 190 205 225 189 17 209 34 353 5 5 4 358 6 4 352 357 335
29 269 233 63 106 86 57 1 39 249 49 359 339 1 281 278 236 185 172 163 163 161 158 160 163 170 176 177 185 209 230 236 220 218 208 225 283 250 334 315 340 349 3 38 3 10 360 352 7
334 334 19 108 110 93 114 239 61 6 119 210 248 248 275 85 58 55 154 151 157 159 162 164 168 173 179 182 189 236 206 150 189 141 197 184 201 266 280 319 332 332 345 343 335 360 350 341 355
241 27 43 105 103 89 105 10 15 341 306 295 282 264 258 94 68 30 135 146 151 160 163 167 174 177 179 173 203 243 237 270 274 252 224 237 221 197 239 281 293 314 330 331 338 9 354 337 336
3 11 34 55 71 51 111 79 221 16 318 325 298 304 120 96 77 47 86 149 155 155 159 166 172 173 176 184 212 232 259 291 226 164 163 178 206 251 243 253 254 261 317 319 318 304 326 317 320
322 59 20 103 44 45 71 187 59 66 347 342 304 276 115 113 100 82 87 119 130 148 160 164 168 170 183 196 216 238 290 357 139 137 274 293 241 236 234 221 240 274 296 305 301 304 302 297 286
300 67 64 65 100 263 278 162 165 159 152 235 256 338 96 118 109 98 127 137 148 160 160 163 173 185 194 203 206 210 243 289 192 303 290 285 287 236 213 220 236 287 295 292 295 299 301 301 295
257 69 355 14 24 216 8 58 185 186 193 227 218 237 336 106 127 134 133 145 156 158 164 171 188 198 201 205 209 210 211 232 247 245 322 312 30 124 188 223 298 307 299 291 291 291 293 298 298
315 118 128 278 328 328 34 304 33 168 250 260 202 250 243 132 126 138 144 150 152 155 167 178 199 206 202 207 215 215 216 227 247 264 239 311 332 37 282 286 310 295 294 294 297 298 296 303 298
321 64 169 136 106 74 18 299 28 162 214 254 221 268 208 131 138 123 115 146 155 162 183 195 201 201 202 211 222 215 215 224 239 207 229 254 301 270 336 294 295 292 293 296 299 299 308 311 310
65 342 20 39 352 35 233 221 283 330 335 130 301 116 49 143 121 127 134 157 166 175 189 203 202 208 190 203 224 239 223 231 231 231 248 259 272 281 279 288 292 298 287 300 293 313 349 344 338
356 11 48 83 180 172 173 237 183 21 53 6 278 233 120 104 131 145 156 165 175 186 184 202 211 207 193 201 258 227 283 245 249 228 246 263 268 274 283 294 300 304 303 53 83 41 6 12 360
119 136 114 130 270 225 108 269 156 193 212 206 254 254 115 128 130 151 167 162 183 182 193 195 215 188 187 225 246 183 218 226 236 244 238 267 280 287 285 297 330 152 76 31 14 2 350 345 355
Height
798 803 806 809 835 834 825 808 789 798 797 781 779 791 805 803 815 845 815 814 817 820 824 826 828 829 831 833 834 834 833 833 833 834 834 834 834 834 834 833 832 831 830 829 828 827 825 824 822
795 800 807 823 852 848 838 795 802 792 783 777 781 790 800 816 803 810 812 815 818 821 825 827 828 829 830 832 834 834 833 833 833 834 834 834 834 834 834 833 833 832 830 829 828 827 826 825 823
789 793 810 842 856 848 834 791 791 782 777 780 791 788 796 808 805 810 813 815 818 821 825 826 828 829 830 832 833 834 834 833 833 834 834 835 835 835 834 833 833 831 830 828 826 825 824 823 821
789 794 809 841 842 815 802 786 778 781 779 777 786 805 798 801 804 808 812 815 817 821 824 825 826 827 829 831 833 834 833 833 833 834 834 834 834 834 833 833 832 831 829 827 825 824 822 821 819
790 799 824 822 819 796 785 775 777 783 783 786 786 808 807 802 805 808 812 813 815 819 822 825 826 826 829 831 832 833 833 833 833 833 834 834 834 834 834 833 832 830 828 826 824 822 820 819 818
800 800 832 833 803 791 783 774 776 785 786 786 795 803 806 802 804 807 810 811 813 817 821 824 826 828 829 831 833 832 832 833 833 832 832 833 833 834 834 832 831 830 827 826 824 822 820 819 817
801 813 812 808 809 800 788 775 788 791 791 790 786 807 803 800 803 806 809 812 815 818 821 824 826 828 829 831 831 832 832 833 833 832 832 833 833 833 833 832 831 829 828 826 823 821 820 819 817
785 796 799 797 810 809 783 782 779 785 794 779 780 804 811 801 803 805 809 812 815 817 820 822 824 826 828 829 830 830 832 832 833 833 833 833 833 832 832 831 830 829 828 826 824 822 821 820 818
768 804 815 799 803 797 778 789 775 773 784 783 784 790 795 799 802 805 808 810 813 816 818 820 822 824 826 828 828 829 830 831 832 832 833 832 832 832 832 831 830 830 828 827 826 823 822 820 818
773 807 792 779 779 787 775 782 780 782 788 792 792 793 796 799 801 804 808 810 813 816 819 821 823 824 826 826 826 828 829 831 832 833 833 831 831 832 832 831 831 830 828 827 826 825 822 821 819
772 794 774 774 769 770 778 778 766 781 795 788 794 794 796 800 801 803 806 808 811 814 818 820 822 825 827 828 829 829 829 830 832 832 833 831 831 832 831 832 831 830 829 827 826 825 823 821 819
789 772 776 770 766 769 776 768 773 775 782 776 783 788 794 799 800 802 805 807 809 812 817 820 822 824 827 828 828 830 831 831 831 831 831 831 830 831 831 832 831 829 829 827 826 825 823 821 819
791 785 773 774 776 769 765 789 789 776 769 773 781 788 793 797 799 801 803 806 809 812 817 820 821 822 825 827 828 830 831 832 830 831 832 832 830 830 830 831 830 829 828 827 826 824 822 819 818
776 778 779 772 777 776 778 791 802 784 777 777 782 789 792 795 797 799 802 807 809 812 816 819 821 822 825 826 826 828 829 832 831 832 831 831 831 830 830 830 829 828 827 826 825 824 821 818 818
782 799 787 778 770 785 772 795 792 780 782 779 782 786 789 792 794 795 797 801 804 808 812 816 819 822 824 826 827 829 830 831 831 831 830 830 830 830 831 829 828 828 827 825 824 823 821 819 817
795 809 831 789 780 775 788 832 797 787 789 783 780 783 785 786 787 790 793 796 798 801 805 811 816 820 823 825 827 828 829 829 831 830 830 830 830 830 830 830 829 828 827 825 824 822 821 819 817
795 827 830 801 763 782 789 822 814 799 810 785 780 777 778 781 783 787 790 791 793 797 802 807 812 817 820 824 826 827 827 828 829 829 830 830 830 829 829 829 829 828 827 826 825 822 821 820 816
824 815 807 804 791 792 805 822 822 818 803 796 795 789 780 779 777 780 786 788 791 794 799 804 810 814 818 820 823 825 825 825 826 826 827 828 828 829 828 829 829 828 827 826 825 823 821 820 817
782 792 798 797 797 810 823 837 825 820 797 790 797 814 785 781 773 775 782 785 790 796 799 803 807 811 814 818 821 823 823 823 823 823 825 825 827 828 828 828 828 828 827 826 825 823 822 819 818
785 793 801 800 803 813 817 826 818 814 810 789 803 804 796 783 780 783 784 787 790 794 798 802 806 809 812 816 819 820 821 821 822 823 824 824 825 826 827 827 827 827 826 826 825 824 822 820 819
784 795 800 807 801 807 821 828 825 822 811 793 796 795 787 781 783 784 788 792 794 794 797 801 805 809 813 817 820 821 821 821 822 821 823 823 823 824 825 825 825 826 826 825 825 824 823 821 818
804 776 782 796 813 840 813 862 828 835 828 817 804 799 785 783 784 786 788 791 793 797 801 805 809 812 816 820 822 822 823 823 822 822 823 822 822 822 823 823 823 824 824 825 824 823 822 821 820
788 772 784 795 819 832 828 846 841 838 841 838 821 799 786 786 787 789 792 798 800 802 805 808 810 813 817 819 821 822 823 823 822 822 822 822 820 819 820 821 821 822 822 822 822 821 820 819 818
758 779 791 809 825 860 821 834 844 848 837 831 810 793 788 787 789 790 794 797 800 803 806 808 810 812 813 813 813 817 820 821 821 821 821 820 818 817 819 820 820 819 819 820 819 819 817 816 814
768 807 849 856 867 872 818 836 838 834 820 804 799 796 790 785 790 792 793 795 798 802 805 807 808 807 808 809 812 813 814 817 819 819 820 819 818 815 817 818 818 817 817 816 816 815 814 813 811
776 810 850 866 867 859 833 852 835 817 812 796 790 797 786 785 787 790 790 790 795 800 803 805 804 805 811 814 814 809 810 813 815 816 817 817 818 816 816 816 816 814 813 812 813 812 810 809 807
792 817 799 831 835 865 858 837 822 828 828 806 798 794 786 785 786 786 787 789 793 796 797 799 798 803 807 809 810 807 806 811 813 815 815 815 815 815 814 814 813 811 810 810 809 808 806 805 803
785 783 829 836 864 862 869 850 854 826 808 809 802 792 788 782 784 784 784 785 787 791 792 795 794 798 806 811 804 807 805 807 812 811 811 812 812 813 812 811 809 807 807 806 805 804 803 802 800
809 811 831 838 844 873 872 859 821 829 816 810 795 794 782 782 783 782 783 782 782 784 788 790 791 792 796 799 799 803 811 809 809 807 807 807 809 809 808 807 806 806 804 803 803 802 801 800 799
791 813 827 855 840 837 840 863 819 815 815 796 796 788 777 777 778 779 779 778 780 781 783 787 790 789 790 792 794 803 803 804 806 805 804 804 806 806 805 804 804 804 802 803 801 800 799 798 796